[[{"header":{"parameterUnit":"m.s-1","parameterCategory":2,"la1":30.2991,"la2":30.254,"lo1":-89.0895,"lo2":-89.0444,"dy":0.0017,"dx":0.0017,"nx":28,"ny":28,"refTime":"2025-09-06T09:00:00:Z","depth":"0","parameterNumber":2,"parameterNumberName":"U-component_of_CURRENTS"},"data":[0,0,0,0,0,0,0,0,0,0,0,0,0,0,0,0,0,0,0,0,0,0,0,0,0,0,0,0,0,0,0,0,0,0,0,0,0,0,0,0,0,0,0,0,0,0,0,0,0,0,0,0,0,0,0,0,0,0,-0.2956,-0.2956,0,-0.3015,-0.3015,-0.3016,-0.2984,-0.2983,-0.2981,-0.298,-0.2977,-0.2979,-0.298,0,0,0,0,0,0,0,0,0,0,0,0,0,-0.2818,-0.282,-0.2955,-0.2956,-0.2957,-0.3015,-0.3015,-0.3016,-0.2984,-0.2983,-0.2981,-0.2979,-0.2977,-0.2978,-0.298,0,0,0,0,0,0,0,0,0,0,0,0,0,-0.2875,-0.2821,-0.2955,-0.295,-0.2951,-0.3015,-0.3015,-0.3016,-0.2985,-0.2983,-0.298,-0.2979,-0.2977,-0.2978,-0.298,-0.3033,0,0,-0.2986,-0.2986,0,0,0,0,0,0,0,0,-0.2872,-0.288,-0.295,-0.2951,-0.2951,-0.2992,-0.2966,-0.3019,-0.2985,-0.2969,-0.298,-0.2977,-0.298,-0.2981,-0.2994,-0.3033,-0.3033,-0.2986,-0.2987,-0.2988,-0.2988,0,0,0,0,0,0,0,-0.2868,-0.2877,-0.2976,-0.2951,-0.2952,-0.2946,-0.2952,-0.2976,-0.2982,-0.297,-0.2969,-0.298,-0.2979,-0.2993,-0.2994,-0.3033,-0.2986,-0.2987,-0.2989,-0.2989,-0.3093,-0.3094,0,0,0,0,0,0,-0.2869,-0.2874,-0.2975,-0.2978,-0.2909,-0.2951,-0.2957,-0.2979,-0.2983,-0.2983,-0.2982,-0.2978,-0.2991,-0.2992,-0.2994,-0.3052,-0.2988,-0.2989,-0.299,-0.3091,-0.3093,-0.3095,0,0,0,0,0,0,-0.2866,-0.2877,-0.2972,-0.2928,-0.294,-0.2955,-0.2981,-0.2981,-0.2987,-0.2993,-0.2991,-0.2986,-0.2989,-0.2991,-0.3024,-0.3051,-0.299,-0.2992,-0.3089,-0.3092,-0.3094,-0.317,0,0,0,0,0,0,-0.2862,-0.2876,-0.2888,-0.2929,-0.2943,-0.3017,-0.2983,-0.2984,-0.2999,-0.2995,-0.2997,-0.2994,-0.2988,-0.3021,-0.3026,-0.3052,-0.2993,-0.3087,-0.309,-0.3093,-0.3166,-0.3175,-0.3183,0,0,0,0,0,-0.2857,-0.2883,-0.2889,-0.2901,-0.2961,-0.3019,-0.3026,-0.3026,-0.3001,-0.302,-0.302,-0.2994,-0.3043,-0.3025,-0.3029,-0.3057,-0.3086,-0.3089,-0.3093,-0.3162,-0.3173,-0.3183,0,0,0,0,0,0,-0.2817,-0.2884,-0.289,-0.2932,-0.2975,-0.3014,-0.3027,-0.3032,-0.3049,-0.3035,-0.3026,-0.3027,-0.3064,-0.3055,-0.3035,-0.3095,-0.3056,-0.3061,-0.3107,-0.3118,-0.3126,-0.3107,-0.2995,0,0,0,0,0,-0.282,-0.286,-0.2919,-0.2948,-0.2971,-0.2999,-0.3019,-0.3029,-0.3053,-0.3056,-0.3061,-0.3065,-0.3088,-0.3096,-0.3113,-0.3155,-0.3115,-0.3172,-0.318,-0.3188,-0.3176,-0.3184,-0.3192,-0.3107,-0.3107,-0.3107,0,0,-0.2806,-0.2852,-0.2869,-0.2943,-0.2968,-0.3018,-0.3005,-0.3044,-0.3076,-0.3056,-0.309,-0.31,-0.3107,-0.3151,-0.3166,-0.3144,-0.3184,-0.3193,-0.3199,-0.3182,-0.3188,-0.3196,-0.3203,-0.311,-0.3109,-0.3109,0,0,-0.2812,-0.2846,-0.2885,-0.2934,-0.2995,-0.3025,-0.3039,-0.3089,-0.3099,-0.3152,-0.3139,-0.3168,-0.3201,-0.3216,-0.3225,-0.3294,-0.3233,-0.3295,-0.3324,-0.3333,-0.3339,-0.3344,-0.3269,-0.3268,-0.3297,-0.3297,-0.3297,0,-0.2788,-0.2853,-0.2902,-0.296,-0.2997,-0.303,-0.3078,-0.311,-0.3162,-0.3181,-0.3167,-0.3227,-0.3233,-0.3285,-0.3303,-0.3313,-0.3276,-0.3285,-0.3343,-0.3348,-0.3352,-0.3274,-0.3271,-0.3301,-0.3301,-0.33,-0.33,0,-0.2836,-0.2884,-0.291,-0.2996,-0.3048,-0.3093,-0.3156,-0.3194,-0.3209,-0.324,-0.3292,-0.3313,-0.3339,-0.3356,-0.335,-0.3391,-0.3337,-0.3355,-0.3313,-0.3365,-0.3279,-0.3274,-0.3307,-0.3305,-0.3304,-0.3303,0,0,-0.2779,-0.2915,-0.2919,-0.2965,-0.307,-0.3115,-0.3183,-0.3255,-0.3278,-0.3334,-0.3359,-0.3422,-0.3419,-0.3428,-0.3431,-0.3439,-0.343,-0.3406,-0.3404,-0.3323,-0.3382,-0.3158,-0.313,-0.3462,-0.3463,-0.3464,-0.3296,0,-0.2789,-0.2892,-0.2964,-0.3047,-0.3102,-0.3172,-0.3228,-0.3299,-0.3338,-0.3371,-0.3407,-0.3433,-0.3451,-0.3451,-0.3475,-0.3441,-0.3427,-0.3468,-0.3349,-0.3344,-0.3135,-0.3122,-0.2999,-0.2824,-0.3291,-0.329,-0.3289,0,-0.2803,-0.2877,-0.2962,-0.3076,-0.3104,-0.3156,-0.3243,-0.3301,-0.3368,-0.3394,-0.3442,-0.3454,-0.3478,-0.3478,-0.3457,-0.348,-0.3431,-0.3401,-0.3395,-0.3154,-0.3112,-0.2857,-0.2797,-0.2765,-0.3282,-0.3282,-0.3283,0,-0.2739,-0.2865,-0.2928,-0.2972,-0.311,-0.3148,-0.3208,-0.3297,-0.3332,-0.3389,-0.3392,-0.3452,-0.3427,-0.3437,-0.3363,-0.3418,-0.3286,-0.3361,-0.3108,-0.3089,-0.2939,-0.2905,-0.2826,-0.3334,-0.3335,-0.3335,-0.3336,0,-0.2723,-0.2765,-0.2896,-0.2936,-0.2997,-0.3105,-0.3155,-0.3224,-0.3288,-0.3296,-0.3379,-0.3355,-0.3417,-0.3351,-0.3332,-0.315,-0.326,-0.3076,-0.3034,-0.2955,-0.2926,-0.2853,-0.2903,-0.3329,-0.333,-0.3332,-0.3333,0,-0.2637,-0.2724,-0.2802,-0.2937,-0.2971,-0.301,-0.3116,-0.3142,-0.3211,-0.3211,-0.3218,-0.326,-0.3167,-0.3157,-0.3103,-0.3041,-0.286,-0.2846,-0.269,-0.2631,-0.2379,-0.2439,-0.2282,-0.2222,-0.2565,-0.2558,-0.2553,0,-0.2605,-0.2635,-0.2775,-0.2808,-0.2862,-0.2933,-0.297,-0.3083,-0.3098,-0.3122,-0.3091,-0.3025,-0.2952,-0.2756,-0.2639,-0.2503,-0.2575,-0.2281,-0.2381,-0.2297,-0.2338,-0.2408,-0.2379,-0.221,-0.2203,-0.2196,-0.2191,0,-0.2527,-0.2569,-0.2635,-0.2717,-0.2764,-0.2818,-0.2869,-0.2873,-0.2955,-0.2943,-0.287,-0.2818,-0.2614,-0.2405,-0.2191,-0.2118,-0.2213,-0.2138,-0.2143,-0.2096,-0.2083,-0.2026,-0.2344,-0.2134,-0.214,-0.2144,-0.2147,-0.2149,-0.2441,-0.2462,-0.2546,-0.2604,-0.2659,-0.2671,-0.2634,-0.2677,-0.2664,-0.2579,-0.2626,-0.2451,-0.2271,-0.1968,-0.1856,-0.1579,-0.1763,-0.1571,-0.1656,-0.1736,-0.1661,-0.1774,-0.1465,-0.1467,-0.1468,-0.147,-0.1471,0,-0.2329,-0.2364,-0.2424,-0.2485,-0.2485,-0.2553,-0.2532,-0.2441,-0.234,-0.2304,-0.2223,-0.1968,-0.1736,-0.1559,-0.1263,-0.1158,-0.1214,-0.1143,-0.1297,-0.13,-0.1459,-0.1424,-0.0981,-0.0981,-0.0981,-0.0982,-0.0982,-0.0982,-0.2274,-0.2277,-0.2319,-0.2289,-0.2312,-0.2164,-0.21,-0.1997,-0.1911,-0.17,-0.1532,-0.1461,-0.1316,-0.1259,-0.1038,-0.0974,-0.103,-0.0958,-0.1034,-0.124,-0.1291,-0.134,-0.1318,-0.0861,-0.0861,-0.0836,-0.0836,-0.0836]},{"header":{"parameterUnit":"m.s-1","parameterCategory":2,"la1":30.2991,"la2":30.254,"lo1":-89.0895,"lo2":-89.0444,"dy":0.0017,"dx":0.0017,"nx":28,"ny":28,"refTime":"2025-09-06T09:00:00:Z","depth":"0","parameterNumber":3,"parameterNumberName":"V-component_of_CURRENTS"},"data":[0,0,0,0,0,0,0,0,0,0,0,0,0,0,0,0,0,0,0,0,0,0,0,0,0,0,0,0,0,0,0,0,0,0,0,0,0,0,0,0,0,0,0,0,0,0,0,0,0,0,0,0,0,0,0,0,0,0,-0.1147,-0.1146,0,-0.1071,-0.1069,-0.1068,-0.1004,-0.1003,-0.1003,-0.1003,-0.075,-0.0744,-0.0738,0,0,0,0,0,0,0,0,0,0,0,0,0,-0.114,-0.1141,-0.1147,-0.1146,-0.1146,-0.1071,-0.1069,-0.1068,-0.1004,-0.1003,-0.1003,-0.1003,-0.0753,-0.0745,-0.0737,0,0,0,0,0,0,0,0,0,0,0,0,0,-0.1107,-0.1141,-0.1147,-0.1109,-0.1105,-0.1071,-0.1069,-0.1067,-0.1004,-0.1003,-0.1003,-0.1003,-0.0755,-0.0746,-0.0736,-0.0683,0,0,-0.0706,-0.0702,0,0,0,0,0,0,0,0,-0.1109,-0.1107,-0.1115,-0.1111,-0.1107,-0.1051,-0.0975,-0.0932,-0.1004,-0.1037,-0.1003,-0.1003,-0.0838,-0.0822,-0.0803,-0.0671,-0.066,-0.0705,-0.0699,-0.0695,-0.0692,0,0,0,0,0,0,0,-0.1112,-0.1109,-0.1111,-0.1114,-0.111,-0.1063,-0.1058,-0.0966,-0.0933,-0.1034,-0.103,-0.103,-0.0834,-0.0813,-0.0796,-0.0656,-0.0706,-0.0697,-0.0691,-0.0687,-0.0417,-0.0416,0,0,0,0,0,0,-0.1137,-0.1112,-0.1114,-0.111,-0.1113,-0.1064,-0.1058,-0.1065,-0.0938,-0.0921,-0.1031,-0.1028,-0.083,-0.0808,-0.0787,-0.0689,-0.0695,-0.0686,-0.0681,-0.0418,-0.0417,-0.0415,0,0,0,0,0,0,-0.1137,-0.1138,-0.1117,-0.1112,-0.1107,-0.1066,-0.1073,-0.1064,-0.1042,-0.0938,-0.0917,-0.102,-0.0829,-0.0801,-0.0702,-0.068,-0.0682,-0.0673,-0.042,-0.0418,-0.0416,-0.051,0,0,0,0,0,0,-0.1138,-0.1139,-0.1147,-0.1115,-0.1109,-0.1098,-0.1074,-0.1063,-0.1046,-0.1041,-0.0921,-0.0898,-0.0826,-0.0717,-0.0692,-0.0667,-0.0665,-0.0421,-0.0419,-0.0416,-0.0509,-0.0512,-0.0514,0,0,0,0,0,-0.1138,-0.1155,-0.1148,-0.1148,-0.1123,-0.1098,-0.109,-0.1055,-0.1046,-0.1034,-0.0954,-0.0902,-0.0683,-0.0708,-0.0679,-0.065,-0.0423,-0.0419,-0.0417,-0.0508,-0.0511,-0.0514,0,0,0,0,0,0,-0.1154,-0.115,-0.1141,-0.1156,-0.1129,-0.1089,-0.1082,-0.106,-0.0992,-0.0984,-0.0885,-0.0855,-0.076,-0.0689,-0.072,-0.0563,-0.0543,-0.0534,-0.0622,-0.0624,-0.0627,-0.0651,-0.0657,0,0,0,0,0,-0.1165,-0.1178,-0.1156,-0.1165,-0.1159,-0.1121,-0.1107,-0.1085,-0.1028,-0.1,-0.0917,-0.0819,-0.0725,-0.0667,-0.0576,-0.0488,-0.0446,-0.0448,-0.0451,-0.0454,-0.0452,-0.0387,-0.0385,-0.0405,-0.0405,-0.0405,0,0,-0.1176,-0.1174,-0.1181,-0.1169,-0.1149,-0.1136,-0.111,-0.1096,-0.1071,-0.0978,-0.0908,-0.0826,-0.0706,-0.0613,-0.0563,-0.055,-0.0427,-0.0451,-0.0455,-0.045,-0.0384,-0.0382,-0.0381,-0.0403,-0.0404,-0.0404,0,0,-0.1202,-0.1201,-0.1218,-0.12,-0.1181,-0.1153,-0.1153,-0.111,-0.1075,-0.1007,-0.0931,-0.0843,-0.0702,-0.0615,-0.0551,-0.0509,-0.0451,-0.0474,-0.0498,-0.0435,-0.0434,-0.0432,-0.0396,-0.039,-0.0469,-0.047,-0.047,0,-0.121,-0.1229,-0.1214,-0.1218,-0.1205,-0.1165,-0.1163,-0.1122,-0.1047,-0.1009,-0.0993,-0.0794,-0.0702,-0.0579,-0.0567,-0.0516,-0.0484,-0.0504,-0.0443,-0.044,-0.0437,-0.0399,-0.0392,-0.0474,-0.0473,-0.0473,-0.0473,0,-0.1246,-0.1252,-0.1259,-0.125,-0.123,-0.1223,-0.1175,-0.1137,-0.1095,-0.1046,-0.0933,-0.0817,-0.0697,-0.0653,-0.0595,-0.051,-0.0497,-0.0467,-0.045,-0.0442,-0.0401,-0.0392,-0.048,-0.0478,-0.0477,-0.0476,0,0,-0.1281,-0.1284,-0.1283,-0.1281,-0.1247,-0.1234,-0.1192,-0.1134,-0.1098,-0.1016,-0.095,-0.0805,-0.0752,-0.0676,-0.0589,-0.053,-0.0488,-0.0497,-0.0492,-0.0487,-0.0372,-0.0301,-0.0283,-0.0457,-0.0455,-0.0454,-0.0362,0,-0.1306,-0.1328,-0.1313,-0.1309,-0.1313,-0.1259,-0.1216,-0.1157,-0.1094,-0.1016,-0.0901,-0.0802,-0.0756,-0.0695,-0.0633,-0.0517,-0.0464,-0.0517,-0.0356,-0.0351,-0.031,-0.0269,-0.0202,-0.0108,-0.0353,-0.0351,-0.035,0,-0.1343,-0.1351,-0.1365,-0.1336,-0.1329,-0.1316,-0.1245,-0.1202,-0.109,-0.1032,-0.0934,-0.0844,-0.0725,-0.0694,-0.0526,-0.0566,-0.0478,-0.0403,-0.0397,-0.0288,-0.0261,-0.0146,-0.0081,0.0073,-0.0335,-0.0336,-0.0337,0,-0.1382,-0.138,-0.1392,-0.1387,-0.1349,-0.1334,-0.1303,-0.1213,-0.1159,-0.1047,-0.0992,-0.0854,-0.0768,-0.0652,-0.0506,-0.0513,-0.0337,-0.0321,-0.0175,-0.0171,-0.0056,-0.0043,0.0161,-0.0204,-0.0204,-0.0204,-0.0205,0,-0.1418,-0.1423,-0.1417,-0.1427,-0.1424,-0.1379,-0.1345,-0.1292,-0.1188,-0.1122,-0.1008,-0.0928,-0.0755,-0.0631,-0.0514,-0.0317,-0.0341,-0.0167,-0.0128,-0.0087,-0.0078,0.0108,0.0141,-0.0201,-0.0202,-0.0202,-0.0203,0,-0.1459,-0.1455,-0.1474,-0.1457,-0.1452,-0.1455,-0.1394,-0.135,-0.1259,-0.117,-0.1131,-0.0971,-0.0819,-0.0647,-0.0447,-0.031,-0.0035,-0.0067,-0.0042,-0.0001,0.0291,0.0314,0.0532,0.0623,0.0119,0.0121,0.0124,0,-0.1477,-0.1494,-0.1515,-0.1528,-0.1529,-0.1517,-0.1488,-0.14,-0.1345,-0.12,-0.1152,-0.0987,-0.0885,-0.0569,-0.0288,-0.0047,0.0055,0.0184,0.0206,0.0338,0.0392,0.0395,0.0454,0.0307,0.031,0.0313,0.0316,0,-0.1509,-0.1525,-0.1551,-0.159,-0.1592,-0.157,-0.1532,-0.1502,-0.138,-0.1318,-0.123,-0.1154,-0.0811,-0.05,-0.0131,0.0034,0.031,0.0252,0.0401,0.0576,0.0584,0.0678,0.0186,0.0341,0.0338,0.0336,0.0335,0.0334,-0.1528,-0.1574,-0.1615,-0.1647,-0.1643,-0.162,-0.1601,-0.1561,-0.151,-0.1393,-0.132,-0.1088,-0.0619,-0.0097,0.0079,0.0591,0.0504,0.0744,0.0762,0.0755,0.0855,0.0409,0.0602,0.0601,0.06,0.06,0.0599,0,-0.1553,-0.1607,-0.165,-0.1687,-0.1677,-0.1655,-0.1606,-0.1573,-0.1553,-0.1378,-0.1312,-0.0632,-0.0233,0.0261,0.0885,0.11,0.1129,0.1201,0.1231,0.1269,0.0906,0.0931,0.1192,0.1192,0.1192,0.1191,0.1191,0.1191,-0.1568,-0.1642,-0.168,-0.1699,-0.1696,-0.1622,-0.1591,-0.1586,-0.144,-0.1124,-0.0653,-0.0292,0.0451,0.1024,0.1497,0.1541,0.1682,0.1656,0.1715,0.1472,0.1431,0.1391,0.1428,0.1788,0.1789,0.2094,0.2097,0.2099]}],[{"header":{"parameterUnit":"m.s-1","parameterCategory":2,"la1":30.2991,"la2":30.254,"lo1":-89.0895,"lo2":-89.0444,"dy":0.0017,"dx":0.0017,"nx":28,"ny":28,"refTime":"2025-09-06T09:00:00:Z","depth":"2","parameterNumber":2,"parameterNumberName":"U-component_of_CURRENTS"},"data":[0,0,0,0,0,0,0,0,0,0,0,0,0,0,0,0,0,0,0,0,0,0,0,0,0,0,0,0,0,0,0,0,0,0,0,0,0,0,0,0,0,0,0,0,0,0,0,0,0,0,0,0,0,0,0,0,0,0,-0.1998,-0.1998,0,-0.2058,-0.206,-0.2062,-0.2161,-0.2162,-0.2162,-0.2163,-0.2228,-0.2229,-0.2231,0,0,0,0,0,0,0,0,0,0,0,0,0,-0.1973,-0.1974,-0.1998,-0.1998,-0.1997,-0.2058,-0.206,-0.2062,-0.2161,-0.2162,-0.2162,-0.2163,-0.2228,-0.2229,-0.2231,0,0,0,0,0,0,0,0,0,0,0,0,0,-0.2018,-0.1975,-0.1999,-0.2043,-0.2046,-0.2057,-0.206,-0.2063,-0.2161,-0.2162,-0.2162,-0.2163,-0.2227,-0.2229,-0.2231,-0.223,0,0,-0.2237,-0.2238,0,0,0,0,0,0,0,0,-0.2015,-0.2021,-0.2037,-0.2039,-0.2043,-0.209,-0.2074,-0.2114,-0.2161,-0.2133,-0.2163,-0.2163,-0.2172,-0.2178,-0.221,-0.2233,-0.2236,-0.2237,-0.2239,-0.2239,-0.224,0,0,0,0,0,0,0,-0.2012,-0.2018,-0.2038,-0.2036,-0.2039,-0.2059,-0.2068,-0.2084,-0.216,-0.2136,-0.2139,-0.2122,-0.2176,-0.2208,-0.2212,-0.2237,-0.2237,-0.2239,-0.224,-0.2241,-0.2306,-0.2306,0,0,0,0,0,0,-0.1973,-0.2015,-0.2035,-0.2038,-0.2013,-0.2058,-0.2069,-0.2087,-0.216,-0.2167,-0.2121,-0.2126,-0.2204,-0.2209,-0.2214,-0.2303,-0.2239,-0.2241,-0.2242,-0.2305,-0.2306,-0.2306,0,0,0,0,0,0,-0.1973,-0.1976,-0.2033,-0.2014,-0.202,-0.2056,-0.2076,-0.2087,-0.2124,-0.2146,-0.2157,-0.2145,-0.2205,-0.2211,-0.2222,-0.2302,-0.2242,-0.2244,-0.2304,-0.2305,-0.2306,-0.2423,0,0,0,0,0,0,-0.1973,-0.1977,-0.1986,-0.2012,-0.2019,-0.2048,-0.2074,-0.2087,-0.2104,-0.2112,-0.2169,-0.2176,-0.2206,-0.2218,-0.2224,-0.2304,-0.2245,-0.2304,-0.2305,-0.2306,-0.2419,-0.2428,-0.2436,0,0,0,0,0,-0.1973,-0.199,-0.1987,-0.1988,-0.2029,-0.2046,-0.2055,-0.2091,-0.2104,-0.2128,-0.2149,-0.2175,-0.223,-0.2219,-0.2226,-0.2309,-0.2303,-0.2305,-0.2306,-0.2415,-0.2426,-0.2436,0,0,0,0,0,0,-0.1996,-0.2,-0.1999,-0.202,-0.2025,-0.2058,-0.2084,-0.2087,-0.2128,-0.2143,-0.2165,-0.2173,-0.2219,-0.2219,-0.2207,-0.2323,-0.2278,-0.228,-0.2359,-0.2369,-0.2378,-0.2405,-0.2247,0,0,0,0,0,-0.1993,-0.2009,-0.2007,-0.2024,-0.2034,-0.2055,-0.2066,-0.2084,-0.2107,-0.2129,-0.2163,-0.2195,-0.2229,-0.2258,-0.228,-0.2331,-0.2283,-0.2387,-0.2396,-0.2404,-0.2426,-0.2379,-0.2386,-0.231,-0.231,-0.231,0,0,-0.2005,-0.2005,-0.2016,-0.2027,-0.2052,-0.2078,-0.2071,-0.2098,-0.2139,-0.2125,-0.2207,-0.2215,-0.2238,-0.2309,-0.2333,-0.2325,-0.2395,-0.2405,-0.2413,-0.243,-0.2381,-0.2389,-0.2396,-0.2311,-0.2311,-0.2311,0,0,-0.2023,-0.2044,-0.2056,-0.2077,-0.2086,-0.21,-0.2099,-0.2134,-0.2181,-0.2224,-0.2234,-0.2279,-0.233,-0.2384,-0.241,-0.2466,-0.2425,-0.2474,-0.2571,-0.2526,-0.2533,-0.2538,-0.2468,-0.2466,-0.2499,-0.2499,-0.25,0,-0.2027,-0.2058,-0.2062,-0.2088,-0.2114,-0.2109,-0.2142,-0.2187,-0.222,-0.2261,-0.2264,-0.235,-0.2384,-0.2467,-0.2517,-0.2499,-0.2435,-0.2541,-0.254,-0.2544,-0.2547,-0.2475,-0.2471,-0.2505,-0.2505,-0.2504,-0.2503,0,-0.2059,-0.2093,-0.2116,-0.2149,-0.2173,-0.221,-0.2246,-0.2291,-0.2331,-0.2368,-0.245,-0.2484,-0.2543,-0.2572,-0.2584,-0.2643,-0.2574,-0.254,-0.2521,-0.2562,-0.2482,-0.2477,-0.2514,-0.2511,-0.251,-0.2508,0,0,-0.2058,-0.2119,-0.2141,-0.2172,-0.2219,-0.2247,-0.2322,-0.2385,-0.2438,-0.2504,-0.2564,-0.2682,-0.2694,-0.2721,-0.2731,-0.273,-0.2722,-0.2668,-0.2663,-0.2612,-0.2586,-0.2427,-0.2404,-0.2671,-0.2672,-0.2672,-0.2515,0,-0.2086,-0.2146,-0.2179,-0.2259,-0.2289,-0.2342,-0.2413,-0.2475,-0.2525,-0.258,-0.2646,-0.2696,-0.2751,-0.277,-0.2795,-0.2717,-0.2714,-0.2766,-0.2543,-0.2536,-0.2401,-0.2396,-0.2271,-0.211,-0.2508,-0.2507,-0.2507,0,-0.2098,-0.2145,-0.2216,-0.2314,-0.2343,-0.2388,-0.2494,-0.2565,-0.2639,-0.2684,-0.2752,-0.275,-0.2809,-0.2804,-0.2766,-0.2783,-0.2721,-0.2658,-0.2648,-0.2461,-0.2367,-0.2135,-0.2084,-0.2496,-0.2497,-0.2498,-0.2498,0,-0.2075,-0.2174,-0.2234,-0.2275,-0.2376,-0.2435,-0.2503,-0.259,-0.2654,-0.2718,-0.2717,-0.2785,-0.2769,-0.2738,-0.2664,-0.27,-0.2533,-0.2553,-0.2353,-0.2339,-0.2173,-0.2143,-0.2509,-0.2509,-0.251,-0.251,-0.2511,0,-0.2077,-0.214,-0.2229,-0.228,-0.2351,-0.2442,-0.253,-0.2602,-0.2683,-0.2678,-0.2765,-0.2697,-0.2742,-0.2648,-0.262,-0.2446,-0.2502,-0.2363,-0.229,-0.2204,-0.2181,-0.2475,-0.2473,-0.2504,-0.2506,-0.2507,-0.2508,0,-0.2031,-0.2098,-0.2169,-0.23,-0.2326,-0.2388,-0.2516,-0.2549,-0.2659,-0.2624,-0.2626,-0.2622,-0.2475,-0.247,-0.235,-0.2336,-0.221,-0.213,-0.2015,-0.1933,-0.2066,-0.2072,-0.1918,-0.1911,-0.1905,-0.19,-0.1896,0,-0.2048,-0.2065,-0.2158,-0.2178,-0.2234,-0.233,-0.2344,-0.2496,-0.2492,-0.2504,-0.2418,-0.2325,-0.2182,-0.2001,-0.1922,-0.1821,-0.1953,-0.166,-0.174,-0.2061,-0.2006,-0.2022,-0.2035,-0.156,-0.1554,-0.1549,-0.1544,0,-0.2047,-0.2047,-0.2072,-0.2097,-0.2114,-0.2147,-0.2181,-0.2173,-0.2258,-0.2242,-0.2099,-0.2005,-0.181,-0.1622,-0.1522,-0.1458,-0.1685,-0.1543,-0.1876,-0.1727,-0.171,-0.1661,-0.1689,-0.1497,-0.1502,-0.1505,-0.1508,-0.151,-0.2024,-0.1987,-0.197,-0.1968,-0.1989,-0.1918,-0.1885,-0.1889,-0.186,-0.1782,-0.1748,-0.1597,-0.1532,-0.1292,-0.1177,-0.1133,-0.1267,-0.1284,-0.1307,-0.1334,-0.1318,-0.1291,-0.0996,-0.0997,-0.0999,-0.1,-0.1001,0,-0.1924,-0.1847,-0.1848,-0.1785,-0.1714,-0.1781,-0.1718,-0.1653,-0.1521,-0.1472,-0.1395,-0.1192,-0.1041,-0.1001,-0.0851,-0.0814,-0.0886,-0.0795,-0.092,-0.0964,-0.1005,-0.0981,-0.0564,-0.0563,-0.0562,-0.0561,0,0,-0.1845,-0.1704,-0.164,-0.1471,-0.1461,-0.1345,-0.1274,-0.1205,-0.1181,-0.1065,-0.1011,-0.1027,-0.0991,-0.0795,-0.0723,-0.0624,-0.0803,-0.0592,-0.0941,-0.1133,-0.1173,-0.1274,-0.1282,0,0,0,0,0]},{"header":{"parameterUnit":"m.s-1","parameterCategory":2,"la1":30.2991,"la2":30.254,"lo1":-89.0895,"lo2":-89.0444,"dy":0.0017,"dx":0.0017,"nx":28,"ny":28,"refTime":"2025-09-06T09:00:00:Z","depth":"2","parameterNumber":3,"parameterNumberName":"V-component_of_CURRENTS"},"data":[0,0,0,0,0,0,0,0,0,0,0,0,0,0,0,0,0,0,0,0,0,0,0,0,0,0,0,0,0,0,0,0,0,0,0,0,0,0,0,0,0,0,0,0,0,0,0,0,0,0,0,0,0,0,0,0,0,0,-0.0141,-0.0141,0,-0.0061,-0.0059,-0.0058,0.0043,0.0044,0.0045,0.0046,0.0204,0.0208,0.0211,0,0,0,0,0,0,0,0,0,0,0,0,0,-0.0144,-0.0144,-0.0141,-0.0141,-0.0141,-0.0061,-0.0059,-0.0057,0.0043,0.0044,0.0045,0.0046,0.0203,0.0207,0.0211,0,0,0,0,0,0,0,0,0,0,0,0,0,-0.0103,-0.0144,-0.0141,-0.0087,-0.0082,-0.0061,-0.0059,-0.0057,0.0043,0.0044,0.0045,0.0047,0.0202,0.0207,0.0212,0.0219,0,0,0.0228,0.023,0,0,0,0,0,0,0,0,-0.0106,-0.0102,-0.0095,-0.0091,-0.0085,-0.0025,-0.0002,0.0036,0.0043,0.0004,0.0046,0.0047,0.0128,0.014,0.0163,0.0226,0.0233,0.0228,0.0231,0.0233,0.0235,0,0,0,0,0,0,0,-0.0109,-0.0105,-0.0101,-0.0095,-0.0089,-0.0046,-0.0038,0.0006,0.0066,0.0008,0.0013,0.0008,0.0133,0.0158,0.0167,0.0235,0.0228,0.0233,0.0236,0.0238,0.0319,0.0319,0,0,0,0,0,0,-0.0141,-0.0108,-0.0103,-0.0099,-0.0102,-0.0048,-0.0039,-0.0039,0.0065,0.0078,0.0007,0.0012,0.0148,0.0161,0.0173,0.0212,0.0233,0.0238,0.0241,0.032,0.0319,0.0318,0,0,0,0,0,0,-0.0141,-0.0141,-0.0107,-0.0109,-0.0102,-0.0051,-0.005,-0.0038,-0.0013,0.0061,0.0079,0.0018,0.015,0.0166,0.0204,0.0218,0.0241,0.0245,0.0321,0.032,0.0319,0.0274,0,0,0,0,0,0,-0.0141,-0.0141,-0.0151,-0.0111,-0.0104,-0.0105,-0.0052,-0.0038,-0.0022,-0.0014,0.0076,0.0093,0.0152,0.0196,0.0209,0.0226,0.0249,0.0323,0.0321,0.0319,0.0276,0.0271,0.0266,0,0,0,0,0,-0.0142,-0.0162,-0.0151,-0.0151,-0.0119,-0.0108,-0.0099,-0.0051,-0.0023,-0.0021,0.0038,0.009,0.0195,0.0199,0.0215,0.0233,0.0324,0.0321,0.0319,0.0279,0.0272,0.0266,0,0,0,0,0,0,-0.0159,-0.0153,-0.0141,-0.0155,-0.0141,-0.0094,-0.0087,-0.0063,-0.0014,0.0004,0.0078,0.0097,0.0134,0.0176,0.0179,0.0247,0.0268,0.0269,0.0231,0.0226,0.0221,0.0292,0.0254,0,0,0,0,0,-0.0176,-0.019,-0.0173,-0.0184,-0.0177,-0.0135,-0.0125,-0.0095,-0.0052,-0.0028,0.003,0.0091,0.0136,0.0174,0.0216,0.0255,0.031,0.0274,0.0269,0.0265,0.033,0.0396,0.0405,0.0311,0.0311,0.0311,0,0,-0.0183,-0.0186,-0.0191,-0.0191,-0.0165,-0.0172,-0.0122,-0.0108,-0.0097,-0.002,0.0021,0.0069,0.0136,0.018,0.0202,0.0223,0.0304,0.0262,0.0258,0.0329,0.0395,0.0405,0.0414,0.031,0.031,0.031,0,0,-0.0221,-0.0209,-0.0236,-0.0227,-0.0215,-0.0196,-0.0201,-0.0158,-0.0116,-0.0088,-0.0027,0.0048,0.0093,0.0179,0.0218,0.0212,0.0263,0.0189,0.0247,0.0307,0.0317,0.0326,0.0346,0.0358,0.0202,0.0202,0.0202,0,-0.0233,-0.0265,-0.0241,-0.0261,-0.026,-0.0216,-0.0236,-0.0193,-0.0143,-0.0094,-0.0083,0.0059,0.0115,0.0217,0.0225,0.0213,0.0227,0.0264,0.0305,0.0316,0.0327,0.0346,0.036,0.02,0.02,0.02,0.02,0,-0.0284,-0.0308,-0.0317,-0.0334,-0.033,-0.0335,-0.0292,-0.0262,-0.0216,-0.0152,-0.0044,0.0054,0.016,0.0167,0.0207,0.0309,0.0282,0.0276,0.0328,0.0334,0.0351,0.0367,0.0196,0.0197,0.0198,0.0198,0,0,-0.0313,-0.0352,-0.0352,-0.0371,-0.0365,-0.0364,-0.0342,-0.0292,-0.0235,-0.0147,-0.0053,0.0075,0.0173,0.0229,0.0293,0.0378,0.0446,0.0367,0.0371,0.0402,0.0539,0.0451,0.0459,0.0426,0.043,0.0433,0.0498,0,-0.036,-0.0431,-0.0424,-0.0467,-0.05,-0.0443,-0.0418,-0.0351,-0.0269,-0.0166,0.0002,0.0097,0.0177,0.0234,0.0344,0.041,0.0494,0.0428,0.052,0.0524,0.0459,0.0479,0.0468,0.0521,0.0513,0.0516,0.0518,0,-0.0415,-0.0459,-0.0527,-0.0534,-0.0531,-0.054,-0.0469,-0.043,-0.0269,-0.0186,-0.0017,0.009,0.0269,0.0308,0.0513,0.045,0.0523,0.058,0.0582,0.0555,0.0469,0.0526,0.055,0.0545,0.0542,0.0541,0.0539,0,-0.0477,-0.0521,-0.0584,-0.0589,-0.059,-0.0578,-0.0554,-0.0432,-0.0362,-0.0191,-0.0118,0.0101,0.0207,0.0351,0.0503,0.0492,0.069,0.0671,0.0674,0.0666,0.0715,0.0704,0.0839,0.0838,0.0838,0.0838,0.0838,0,-0.0549,-0.0587,-0.0615,-0.0648,-0.0673,-0.0629,-0.0587,-0.0524,-0.0378,-0.0288,-0.0116,-0.0023,0.0224,0.0363,0.0493,0.0629,0.0681,0.0723,0.07,0.0685,0.0671,0.0753,0.0743,0.0841,0.084,0.084,0.0839,0,-0.0617,-0.0643,-0.0712,-0.0723,-0.0722,-0.0733,-0.0656,-0.0595,-0.0466,-0.0351,-0.0306,-0.0103,0.004,0.0264,0.0478,0.059,0.0726,0.0762,0.0707,0.0678,0.0661,0.0647,0.0771,0.0769,0.0768,0.0766,0.0765,0,-0.0656,-0.071,-0.0778,-0.0808,-0.0821,-0.0808,-0.0784,-0.0666,-0.0596,-0.042,-0.0377,-0.021,-0.0079,0.0194,0.0401,0.0608,0.066,0.0704,0.0714,0.0701,0.0666,0.0654,0.0643,0.074,0.0738,0.0737,0.0736,0,-0.0725,-0.076,-0.0823,-0.0887,-0.0906,-0.0896,-0.0855,-0.0821,-0.0662,-0.0571,-0.046,-0.0356,-0.01,0.0121,0.0383,0.0499,0.0666,0.0681,0.073,0.073,0.0669,0.0634,0.0625,0.0727,0.0728,0.0729,0.0729,0.0729,-0.0759,-0.0827,-0.0901,-0.0953,-0.0974,-0.0962,-0.0949,-0.0873,-0.0788,-0.0603,-0.0534,-0.0332,-0.0116,0.0241,0.039,0.0546,0.0563,0.065,0.0656,0.0662,0.0619,0.0556,0.0583,0.0583,0.0584,0.0584,0.0584,0,-0.0786,-0.0867,-0.0933,-0.0993,-0.0997,-0.0995,-0.0967,-0.0916,-0.0839,-0.0643,-0.0493,-0.0251,0.0001,0.0207,0.044,0.0564,0.0601,0.0578,0.0632,0.064,0.0647,0.0605,0.0565,0.0566,0.0566,0.0566,0,0,-0.0805,-0.0899,-0.0942,-0.098,-0.1001,-0.1005,-0.0997,-0.0935,-0.0808,-0.0621,-0.0431,-0.017,0.0048,0.0213,0.0367,0.0475,0.0522,0.0476,0.0482,0.0535,0.054,0.0682,0.0624,0,0,0,0,0]}],[{"header":{"parameterUnit":"m.s-1","parameterCategory":2,"la1":30.2991,"la2":30.254,"lo1":-89.0895,"lo2":-89.0444,"dy":0.0017,"dx":0.0017,"nx":28,"ny":28,"refTime":"2025-09-06T09:00:00:Z","depth":"4","parameterNumber":2,"parameterNumberName":"U-component_of_CURRENTS"},"data":[0,0,0,0,0,0,0,0,0,0,0,0,0,0,0,0,0,0,0,0,0,0,0,0,0,0,0,0,0,0,0,0,0,0,0,0,0,0,0,0,0,0,0,0,0,0,0,0,0,0,0,0,0,0,0,0,0,0,-0.1074,-0.1075,0,-0.1143,-0.1144,-0.1144,-0.1188,-0.1188,-0.1189,-0.1189,-0.124,-0.1241,-0.1242,0,0,0,0,0,0,0,0,0,0,0,0,0,-0.0983,-0.0984,-0.1074,-0.1075,-0.1076,-0.1143,-0.1144,-0.1144,-0.1188,-0.1188,-0.1189,-0.1189,-0.124,-0.1241,-0.1242,0,0,0,0,0,0,0,0,0,0,0,0,0,-0.1032,-0.0985,-0.1074,-0.1108,-0.1111,-0.1143,-0.1144,-0.1145,-0.1188,-0.1188,-0.1189,-0.119,-0.1239,-0.1241,-0.1242,-0.1236,0,0,-0.1246,-0.1247,0,0,0,0,0,0,0,0,-0.1029,-0.1035,-0.1102,-0.1105,-0.111,-0.116,-0.1131,-0.1175,-0.1187,-0.1156,-0.1189,-0.119,-0.1213,-0.1216,-0.1224,-0.1238,-0.1241,-0.1246,-0.1247,-0.1248,-0.1248,0,0,0,0,0,0,0,-0.1026,-0.1032,-0.1099,-0.1103,-0.1108,-0.1121,-0.1128,-0.1139,-0.1177,-0.1159,-0.1163,-0.1174,-0.1214,-0.1223,-0.1226,-0.1241,-0.1246,-0.1247,-0.1248,-0.1249,-0.1337,-0.1338,0,0,0,0,0,0,-0.1022,-0.1029,-0.1097,-0.1101,-0.1073,-0.1122,-0.113,-0.1141,-0.1178,-0.1185,-0.1174,-0.1176,-0.122,-0.1224,-0.1228,-0.1297,-0.1248,-0.1249,-0.125,-0.1335,-0.1337,-0.1339,0,0,0,0,0,0,-0.1019,-0.1027,-0.1094,-0.1069,-0.1078,-0.1123,-0.1135,-0.1142,-0.1173,-0.1189,-0.1196,-0.12,-0.1221,-0.1226,-0.1263,-0.1296,-0.125,-0.1251,-0.1333,-0.1336,-0.1338,-0.1388,0,0,0,0,0,0,-0.1016,-0.1025,-0.1037,-0.1068,-0.108,-0.1133,-0.1134,-0.1143,-0.1179,-0.1183,-0.1214,-0.1218,-0.1222,-0.1261,-0.1265,-0.1297,-0.1252,-0.1331,-0.1334,-0.1337,-0.1384,-0.1391,-0.1398,0,0,0,0,0,-0.1013,-0.1024,-0.1037,-0.1046,-0.1092,-0.1134,-0.1141,-0.1173,-0.118,-0.1202,-0.1223,-0.1218,-0.1282,-0.1264,-0.1267,-0.1301,-0.133,-0.1334,-0.1337,-0.1381,-0.139,-0.1397,0,0,0,0,0,0,-0.0997,-0.103,-0.1045,-0.1068,-0.1109,-0.1143,-0.1167,-0.1184,-0.1217,-0.1224,-0.1233,-0.124,-0.1288,-0.1286,-0.1265,-0.1336,-0.1307,-0.1311,-0.1339,-0.1348,-0.1354,-0.1333,-0.1253,0,0,0,0,0,-0.0996,-0.1013,-0.1053,-0.1077,-0.1098,-0.1135,-0.1157,-0.118,-0.121,-0.1227,-0.1252,-0.1276,-0.1301,-0.1317,-0.1339,-0.1371,-0.1354,-0.1397,-0.1403,-0.1409,-0.1395,-0.1407,-0.1413,-0.135,-0.135,-0.135,0,0,-0.1001,-0.102,-0.1033,-0.1075,-0.1108,-0.1146,-0.1151,-0.1194,-0.1227,-0.1225,-0.1283,-0.1302,-0.1316,-0.136,-0.1381,-0.1364,-0.142,-0.1413,-0.1418,-0.1401,-0.1411,-0.1417,-0.1423,-0.1352,-0.1352,-0.1351,0,0,-0.1011,-0.1036,-0.1053,-0.1087,-0.1137,-0.1164,-0.1181,-0.1231,-0.1259,-0.1311,-0.1319,-0.1353,-0.1401,-0.1412,-0.1423,-0.1476,-0.1458,-0.1495,-0.1509,-0.1522,-0.1527,-0.1531,-0.1521,-0.1523,-0.1496,-0.1496,-0.1496,0,-0.1012,-0.1041,-0.1068,-0.1097,-0.1128,-0.1175,-0.1207,-0.1246,-0.1304,-0.1321,-0.1341,-0.1405,-0.1423,-0.1453,-0.1479,-0.149,-0.1486,-0.1478,-0.1529,-0.1533,-0.1536,-0.1524,-0.1527,-0.1499,-0.1498,-0.1498,-0.1498,0,-0.1034,-0.1067,-0.1087,-0.1137,-0.1171,-0.1213,-0.1265,-0.1308,-0.135,-0.138,-0.1435,-0.1463,-0.1493,-0.1516,-0.1516,-0.155,-0.1537,-0.1538,-0.1504,-0.1545,-0.1531,-0.1532,-0.1503,-0.1502,-0.1501,-0.15,0,0,-0.1008,-0.1084,-0.1093,-0.1118,-0.1194,-0.1219,-0.1283,-0.1338,-0.1364,-0.1436,-0.1468,-0.1526,-0.1537,-0.1547,-0.1557,-0.157,-0.1598,-0.1567,-0.1566,-0.1547,-0.1614,-0.1502,-0.1492,-0.1614,-0.1615,-0.1615,-0.1595,0,-0.1021,-0.1073,-0.1108,-0.1166,-0.1201,-0.1255,-0.1301,-0.1354,-0.1406,-0.1454,-0.1493,-0.1534,-0.1552,-0.1567,-0.1588,-0.1596,-0.1604,-0.1602,-0.1584,-0.1582,-0.147,-0.149,-0.1617,-0.1596,-0.1596,-0.1596,-0.1597,0,-0.1024,-0.1061,-0.1117,-0.1171,-0.1188,-0.1233,-0.1295,-0.1336,-0.1408,-0.1441,-0.1491,-0.1531,-0.1571,-0.158,-0.161,-0.1612,-0.1614,-0.1616,-0.1615,-0.1487,-0.1472,-0.1547,-0.1598,-0.1598,-0.1598,-0.1598,-0.1598,0,-0.0979,-0.1056,-0.1097,-0.1125,-0.1203,-0.1234,-0.1273,-0.134,-0.135,-0.1434,-0.1456,-0.152,-0.1551,-0.1576,-0.1605,-0.1613,-0.1622,-0.1632,-0.1526,-0.1518,-0.1603,-0.1599,-0.1639,-0.1639,-0.164,-0.164,-0.164,0,-0.0958,-0.0986,-0.1089,-0.1109,-0.1149,-0.1208,-0.1233,-0.1283,-0.1326,-0.1345,-0.1442,-0.1468,-0.1556,-0.1586,-0.16,-0.1558,-0.1622,-0.1515,-0.1503,-0.1626,-0.1625,-0.1604,-0.16,-0.1639,-0.1639,-0.1639,-0.1639,0,-0.0882,-0.0959,-0.1,-0.1095,-0.1129,-0.1149,-0.1192,-0.1196,-0.1261,-0.1291,-0.1319,-0.1424,-0.1467,-0.152,-0.1558,-0.1531,-0.1514,-0.1483,-0.1595,-0.1593,-0.1402,-0.1402,-0.1354,-0.135,-0.1346,-0.1343,-0.1341,0,-0.0842,-0.0867,-0.0969,-0.0985,-0.103,-0.1071,-0.1093,-0.116,-0.1161,-0.1259,-0.1265,-0.1343,-0.1412,-0.1371,-0.1434,-0.1425,-0.1418,-0.1399,-0.1409,-0.1378,-0.1372,-0.1377,-0.1381,-0.1335,-0.1334,-0.1333,-0.1332,0,-0.0752,-0.0801,-0.0824,-0.0872,-0.0915,-0.0948,-0.0993,-0.0995,-0.1081,-0.1138,-0.1192,-0.1235,-0.1272,-0.131,-0.1302,-0.1305,-0.1408,-0.1362,-0.1369,-0.1379,-0.1354,-0.1354,-0.1362,-0.132,-0.1322,-0.1323,-0.1324,0,-0.0669,-0.0664,-0.0707,-0.0735,-0.0777,-0.0833,-0.088,-0.0915,-0.0942,-0.107,-0.1088,-0.119,-0.127,-0.1245,-0.1246,-0.1226,-0.1214,-0.1193,-0.1209,-0.1223,-0.1188,-0.1139,-0.1015,0,0,0,0,0,-0.0585,-0.0568,-0.0567,-0.0615,-0.0646,-0.0706,-0.0802,-0.0858,-0.0975,-0.098,-0.1027,-0.1068,-0.1095,-0.1137,-0.1087,-0.1166,-0.1206,-0.1102,-0.1188,-0.1252,-0.1266,-0.1237,0,0,0,0,0,0,-0.053,-0.0518,-0.0526,-0.0503,-0.052,-0.0586,-0.0676,-0.0778,-0.0783,-0.0899,-0.0913,-0.098,-0.1007,-0.1091,-0.1053,-0.106,-0.1091,-0.1141,-0.1138,-0.1244,-0.1257,-0.1268,-0.1243,0,0,0,0,0]},{"header":{"parameterUnit":"m.s-1","parameterCategory":2,"la1":30.2991,"la2":30.254,"lo1":-89.0895,"lo2":-89.0444,"dy":0.0017,"dx":0.0017,"nx":28,"ny":28,"refTime":"2025-09-06T09:00:00:Z","depth":"4","parameterNumber":3,"parameterNumberName":"V-component_of_CURRENTS"},"data":[0,0,0,0,0,0,0,0,0,0,0,0,0,0,0,0,0,0,0,0,0,0,0,0,0,0,0,0,0,0,0,0,0,0,0,0,0,0,0,0,0,0,0,0,0,0,0,0,0,0,0,0,0,0,0,0,0,0,-0.0191,-0.0191,0,-0.0167,-0.0167,-0.0167,-0.0132,-0.0132,-0.0132,-0.0131,-0.0078,-0.0077,-0.0076,0,0,0,0,0,0,0,0,0,0,0,0,0,-0.0189,-0.0189,-0.0191,-0.0191,-0.0191,-0.0167,-0.0167,-0.0166,-0.0133,-0.0132,-0.0131,-0.0131,-0.0078,-0.0077,-0.0076,0,0,0,0,0,0,0,0,0,0,0,0,0,-0.0178,-0.0189,-0.0191,-0.0172,-0.0171,-0.0168,-0.0167,-0.0166,-0.0133,-0.0132,-0.0131,-0.0131,-0.0079,-0.0077,-0.0076,-0.008,0,0,-0.0071,-0.007,0,0,0,0,0,0,0,0,-0.0179,-0.0178,-0.0175,-0.0174,-0.0172,-0.0154,-0.0147,-0.0136,-0.0133,-0.0145,-0.0131,-0.013,-0.0102,-0.0098,-0.0094,-0.0077,-0.0075,-0.0071,-0.007,-0.0069,-0.0069,0,0,0,0,0,0,0,-0.018,-0.0179,-0.018,-0.0175,-0.0173,-0.0159,-0.0156,-0.0144,-0.0126,-0.0144,-0.0142,-0.0142,-0.01,-0.0095,-0.0092,-0.0074,-0.0071,-0.007,-0.0069,-0.0068,-0.0039,-0.0039,0,0,0,0,0,0,-0.0188,-0.018,-0.0181,-0.018,-0.0176,-0.0159,-0.0157,-0.0159,-0.0127,-0.0122,-0.0143,-0.0141,-0.0098,-0.0094,-0.009,-0.0098,-0.0069,-0.0068,-0.0067,-0.0039,-0.0039,-0.0039,0,0,0,0,0,0,-0.0188,-0.0188,-0.0182,-0.018,-0.0179,-0.016,-0.0163,-0.0159,-0.0153,-0.0126,-0.012,-0.0142,-0.0097,-0.0092,-0.008,-0.0095,-0.0067,-0.0066,-0.0039,-0.0039,-0.0039,-0.011,0,0,0,0,0,0,-0.0188,-0.0188,-0.0197,-0.0181,-0.0179,-0.0191,-0.0163,-0.0159,-0.0155,-0.0152,-0.0124,-0.0118,-0.0097,-0.0083,-0.0079,-0.0093,-0.0065,-0.0039,-0.0039,-0.0039,-0.0108,-0.0113,-0.0117,0,0,0,0,0,-0.0188,-0.0203,-0.0198,-0.0198,-0.0191,-0.0192,-0.019,-0.0173,-0.0156,-0.0164,-0.0137,-0.0119,-0.0081,-0.0082,-0.0077,-0.0091,-0.0039,-0.0039,-0.0039,-0.0106,-0.0112,-0.0117,0,0,0,0,0,0,-0.0204,-0.02,-0.0195,-0.0207,-0.0205,-0.0187,-0.0192,-0.0178,-0.0163,-0.0156,-0.0124,-0.0117,-0.011,-0.0089,-0.009,-0.0081,-0.0055,-0.0055,-0.0108,-0.0113,-0.0118,-0.0137,-0.0063,0,0,0,0,0,-0.0214,-0.0227,-0.0217,-0.023,-0.0228,-0.021,-0.0209,-0.0198,-0.0182,-0.0174,-0.0151,-0.0125,-0.0108,-0.0102,-0.0081,-0.0083,-0.0038,-0.0085,-0.009,-0.0094,-0.0105,-0.0036,-0.0036,-0.004,-0.004,-0.004,0,0,-0.0226,-0.0226,-0.0233,-0.0236,-0.0228,-0.0241,-0.0208,-0.021,-0.022,-0.0171,-0.0172,-0.0141,-0.011,-0.0108,-0.0103,-0.0093,-0.007,-0.0095,-0.0099,-0.0107,-0.0036,-0.0036,-0.0035,-0.0041,-0.004,-0.004,0,0,-0.0256,-0.0253,-0.0272,-0.0275,-0.0273,-0.0266,-0.0269,-0.0252,-0.0243,-0.0243,-0.0204,-0.0181,-0.0162,-0.0139,-0.0127,-0.0145,-0.0094,-0.0139,-0.0186,-0.0119,-0.0118,-0.0117,-0.0062,-0.0056,-0.0146,-0.0146,-0.0146,0,-0.0266,-0.0293,-0.0279,-0.0298,-0.0309,-0.0281,-0.0305,-0.0296,-0.0278,-0.0273,-0.0252,-0.0208,-0.0178,-0.0172,-0.0178,-0.0158,-0.0114,-0.017,-0.0126,-0.0123,-0.0121,-0.0065,-0.0057,-0.0149,-0.0149,-0.0149,-0.0148,0,-0.0313,-0.0333,-0.0344,-0.0362,-0.0373,-0.0387,-0.0378,-0.0376,-0.0358,-0.0344,-0.0327,-0.028,-0.0254,-0.024,-0.0219,-0.0195,-0.0167,-0.0136,-0.0114,-0.0125,-0.0065,-0.0055,-0.0154,-0.0153,-0.0152,-0.0151,0,0,-0.0326,-0.0369,-0.0372,-0.0397,-0.0408,-0.0422,-0.0438,-0.0444,-0.0446,-0.0421,-0.042,-0.0385,-0.0348,-0.0331,-0.029,-0.0239,-0.0181,-0.0191,-0.0186,-0.0144,-0.0038,-0.004,-0.0029,-0.0139,-0.0138,-0.0136,-0.0005,0,-0.0362,-0.0421,-0.0431,-0.0486,-0.0512,-0.0503,-0.0526,-0.0527,-0.0503,-0.0491,-0.0443,-0.0422,-0.0387,-0.0366,-0.0316,-0.0209,-0.0157,-0.022,-0.0029,-0.0024,-0.0029,-0.0019,-0.0132,0.0002,0.0005,0.0006,0.0008,0,-0.0399,-0.0435,-0.0501,-0.0553,-0.0563,-0.0595,-0.0615,-0.0627,-0.0602,-0.0581,-0.0549,-0.0498,-0.0441,-0.0395,-0.0239,-0.0279,-0.0174,-0.0088,-0.008,-0.0052,-0.0007,0.0018,0.0027,0.0025,0.0024,0.0022,0.0021,0,-0.0422,-0.0481,-0.0542,-0.056,-0.0612,-0.0641,-0.0664,-0.0656,-0.066,-0.0627,-0.0608,-0.054,-0.0484,-0.0361,-0.0199,-0.0209,-0.0007,0.001,0.0104,0.0106,0.0099,0.0097,0.0128,0.0128,0.0127,0.0127,0.0127,0,-0.0454,-0.0498,-0.0561,-0.0596,-0.0661,-0.0682,-0.0722,-0.0727,-0.0719,-0.0706,-0.0656,-0.0606,-0.0465,-0.0337,-0.0204,-0.0023,-0.0005,0.0095,0.014,0.0066,0.0058,0.0107,0.0102,0.0132,0.0131,0.013,0.0129,0,-0.0467,-0.051,-0.0581,-0.0653,-0.0677,-0.0723,-0.077,-0.0776,-0.0773,-0.0746,-0.0737,-0.0639,-0.0466,-0.0319,-0.0092,-0.0017,0.0153,0.0218,0.012,0.0158,0.0219,0.0209,0.0323,0.0324,0.0325,0.0325,0.0326,0,-0.0482,-0.0522,-0.0618,-0.0655,-0.0692,-0.0751,-0.0775,-0.0801,-0.0794,-0.0742,-0.0719,-0.0578,-0.0485,-0.0175,-0.0037,0.0195,0.0228,0.029,0.0246,0.0207,0.024,0.0229,0.0219,0.0327,0.0328,0.0328,0.0328,0,-0.0501,-0.0539,-0.06,-0.0674,-0.0722,-0.0761,-0.0797,-0.0799,-0.0791,-0.079,-0.0658,-0.0522,-0.0333,-0.0139,0.0035,0.02,0.0226,0.03,0.0299,0.0258,0.0214,0.0243,0.0232,0.0331,0.0331,0.033,0.033,0,-0.0511,-0.0553,-0.0626,-0.0689,-0.0739,-0.0751,-0.0776,-0.0744,-0.0743,-0.0686,-0.0627,-0.0447,-0.0348,-0.0132,0.0035,0.018,0.0208,0.0231,0.0234,0.0232,0.0151,0.0078,0.0195,0,0,0,0,0,-0.0506,-0.0554,-0.0622,-0.0694,-0.0733,-0.0757,-0.0773,-0.0781,-0.0769,-0.0663,-0.0648,-0.0462,-0.0221,-0.0125,0.0029,0.0028,0.0208,0.0205,0.0231,0.0348,0.0345,0.0262,0,0,0,0,0,0,-0.0508,-0.0576,-0.0621,-0.0671,-0.0706,-0.074,-0.0745,-0.0738,-0.0678,-0.0643,-0.05,-0.0448,-0.0205,-0.0294,0.0028,0.0066,0.0095,0.0312,0.0314,0.035,0.0347,0.0344,0.0258,0,0,0,0,0]}]]